Погода в Матвинур

Россия / Кировская область     57°03′56″N   47°26′11″E
темп.,
°C
ветер,
м/с
пор.,
м/с
влажн.,
%
обл.,
%
осадки,
мм/ч
давл.,
гПа
погр.,
м
17 апреля, сб
сб1700:00+3всв411765 0.0 1028244
03:00+2всв310815 0.0 1029200
06:00+2всв410770 0.0 1029261
09:00+7всв58520 0.0 1029608
12:00+10всв56420 0.0 10281039
15:00+11всв45410 0.0 10271196
18:00+9св25580 0.0 1026121
21:00+5св35735 0.0 102783
18 апреля, вс
вс1800:00+3св36805 0.0 1026106
03:00+2св35860 0.0 102787
06:00+3св37833 0.0 1026184
09:00+8всв46575 0.0 1026679
12:00+11св5750100 0.0 10261457
15:00+10всв7756100 0.0 10261328
18:00+7всв6959100 0.0 1027993
21:00+5всв61250100 0.0 1029627
19 апреля, пн
пн1900:00+3в51255100 0.0 1030605
03:00+1всв51164100 0.0 1031472
06:00+1в51364100 0.0 1031583
09:00+4в710413 0.0 10321158
12:00+7в79320 0.0 10321648
15:00+8в79300 0.0 10321736
18:00+6в59380 0.0 1032882
21:00+3в513470 0.0 1032434
20 апреля, вт
вт2000:00+1в513540 0.0 1033405
03:000в512560 0.0 1033335
06:00+1в512520 0.0 1033422
09:00+6вюв69410 0.0 1032985
12:00+9вюв79320 0.0 10311464
15:00+10вюв79290 0.0 10291449
18:00+8вюв6113922 0.0 1028798
21:00+4вюв6154729 0.0 1028528
21 апреля, ср
ср2100:00+4вюв6155081 0.0 1027561
03:00+3вюв71752100 0.0 1025572
06:00+3вюв71753100 0.0 1023638
09:00+6юв81749100 0.0 1022807
12:00+3юв81881100 1.4 1022850
15:00+3юв81790100 4.1 1022762
18:00+4ююв71687100 0.2 1022774
21:00+4ююв71592100 0.2 1023679